Tracking 29493 objects as of 8-Sep-2024
HD Live streaming from Space Station
objects crossing your sky now

FENGYUN 1C DEB

Track FENGYUN 1C DEB now!
10-day predictions


NORAD ID: 31003
Int'l Code: 1999-025BCV
Perigee: 801.3 km
Apogee: 866.7 km
Inclination: 98.9 °
Period: 101.4 minutes
Semi major axis: 7204 km
RCS: 0.0252 m2 (small)
Launch date: May 10, 1999
Source: People's Republic of China (PRC)
Launch site: Taiyaun Space Center, China (TSC)

Note: This is SATELLITE DEBRIS
Your satellite tracking list
Your tracking list is empty




NASA's NSSDC Master Catalog

Two Line Element Set (TLE):
1 31003U 99025BCV 24252.11782405  .00014579  00000-0  68487-2 0  9996
2 31003  98.8700 320.6703 0045365 104.9477 255.6728 14.19562921899604
Source of the keplerian elements: AFSPC